This demonstration page uses our WeatherBlox Daily Observations layout. Learn more.

38.89511, -77.03637

Hourly Observations for March 8, 2015

Temp ( °F °C ) Dew Point ( °F °C ) Humidity (%) Winds ( mph kmh ) Pressure ( in mb ) Visibility ( mi km ) Precip ( " mm )
12:52 am 00:52 Mostly Cloudy 43 6 27 -3 53 53 S 7 11 30.12 1020 10 16.09344 0 0
1:52 am 01:52 Partly Cloudy 43 6 27 -3 53 53 SSW 5 7 30.09 1019 10 16.09344 0 0
3:52 am 03:52 Mostly Clear 41 5 27 -3 57 57 S 6 9 30.09 1019 10 16.09344 0 0
4:52 am 04:52 Partly Cloudy 41 5 25 -4 53 53 S 6 9 30.09 1019 10 16.09344 0 0
5:52 am 05:52 Partly Cloudy 37 3 25 -4 60 60 Calm 30.09 1019 10 16.09344 0 0
6:52 am 06:52 Mostly Clear 36 2 27 -3 70 70 Calm 30.12 1020 10 16.09344 0 0
7:52 am 07:52 Mostly Sunny 37 3 25 -4 60 60 W 6 9 30.15 1021 10 16.09344 0 0
8:52 am 08:52 Partly Cloudy 37 3 28 -2 70 70 S 5 7 30.15 1021 10 16.09344 0 0
9:52 am 09:52 Partly Cloudy 43 6 28 -2 57 57 Calm 30.18 1022 10 16.09344 0 0
10:52 am 10:52 Partly Cloudy 50 10 27 -3 40 40 NW 12 19 30.18 1022 10 16.09344 0 0
11:52 am 11:52 Partly Cloudy 54 12 28 -2 38 38 W 14 22 30.18 1022 10 16.09344 0 0
12:52 pm 12:52 Partly Cloudy 54 12 28 -2 38 38 NW 15 24 30.18 1022 10 16.09344 0 0
1:52 pm 13:52 Mostly Cloudy 55 13 27 -3 33 33 W 15 24 30.15 1021 10 16.09344 0 0
2:52 pm 14:52 Partly Cloudy 57 14 27 -3 31 31 WNW 12 19 30.12 1020 10 16.09344 0 0
3:52 pm 15:52 Partly Cloudy 57 14 27 -3 31 31 WNW 10 17 30.12 1020 10 16.09344 0 0
4:52 pm 16:52 Partly Cloudy 57 14 27 -3 31 31 N 9 15 30.15 1021 10 16.09344 0 0
5:52 pm 17:52 Partly Cloudy 57 14 27 -3 31 31 NW 7 11 30.15 1021 10 16.09344 0 0
6:52 pm 18:52 Mostly Cloudy 57 14 23 -5 27 27 W 3 6 30.15 1021 10 16.09344 0 0
7:52 pm 19:52 Mostly Cloudy 50 10 27 -3 40 40 SSE 3 6 30.15 1021 10 16.09344 0 0
8:52 pm 20:52 Partly Cloudy 45 7 27 -3 49 49 Calm 30.18 1022 10 16.09344 0 0
9:52 pm 21:52 Partly Cloudy 45 7 28 -2 53 53 S 7 11 30.18 1022 10 16.09344 0 0
10:52 pm 22:52 Cloudy 41 5 28 -2 61 61 Calm 30.18 1022 10 16.09344 0 0
11:52 pm 23:52 Cloudy 39 4 28 -2 65 65 Calm 30.18 1022 10 16.09344 0 0

Powered by AerisWeather